Theta_e
302 302 302 302 302 302 302 302 303 303 304 300 298 300 292 290 288 299 303 304 301 292 286 288 287 285 289 294 293 295 292 291 294 293 295 292 294 293 291 289 290 293 292 290 290 291 287 289 288 293 296 296 299 303 303 304 302 301 298 298 295 296 289 287 287 291 292 293 294 296 296 298 296 297 299 298 293 294 292 291 292 288 290 287 288 285 289
301 301 301 302 302 301 302 302 303 303 303 300 300 294 291 290 290 293 301 303 299 288 280 281 283 286 290 290 290 294 293 292 291 290 293 291 291 290 290 292 294 292 296 293 287 292 285 291 290 290 296 296 301 302 303 304 299 299 297 295 298 291 291 289 283 282 285 287 291 291 295 295 294 293 296 298 298 298 297 295 290 287 289 290 287 282 289
301 301 301 302 302 302 302 302 302 303 303 304 299 292 293 291 293 293 297 300 297 285 287 285 284 285 285 286 286 289 290 294 294 292 291 294 293 292 290 292 293 292 295 293 293 293 291 287 293 293 291 295 297 302 303 304 300 303 304 299 301 293 291 288 281 278 276 276 278 281 284 288 292 296 296 297 296 294 293 287 288 285 288 290 287 287 294
301 301 301 301 301 301 301 301 302 302 302 302 300 295 291 286 280 288 291 294 294 291 293 290 287 286 285 284 286 289 287 291 294 294 292 295 294 293 294 294 295 292 292 289 289 290 293 289 287 290 288 290 293 300 302 302 301 300 298 299 300 291 292 291 289 286 284 286 288 293 293 291 287 290 293 294 296 297 295 291 288 285 289 288 291 292 293
300 300 301 300 300 301 301 301 301 301 301 302 301 297 293 291 283 284 281 289 288 287 290 288 289 285 289 283 287 285 287 289 291 295 288 293 293 293 293 292 289 289 289 288 287 290 289 290 288 288 290 292 294 299 302 301 302 298 297 299 297 291 289 291 292 291 292 293 292 294 294 290 291 290 291 294 294 294 291 289 287 293 289 285 292 294 291
300 300 299 299 300 300 300 301 301 301 301 301 300 290 292 282 287 289 290 284 281 281 284 288 288 289 289 285 289 286 286 287 285 292 292 293 294 289 291 291 292 291 289 289 284 287 286 286 285 290 290 290 293 294 299 299 298 296 298 300 296 292 288 291 293 292 294 294 294 295 294 293 292 292 292 291 293 292 288 290 293 293 288 286 293 295 293
299 299 299 299 299 299 300 300 300 301 301 301 297 288 291 290 291 290 293 285 287 286 287 288 288 287 287 286 287 285 286 285 288 290 289 290 291 291 284 287 290 291 293 290 287 288 284 283 288 288 287 288 290 289 293 297 298 297 295 296 295 294 289 291 292 291 292 294 294 295 293 292 292 292 292 293 292 292 292 293 294 294 293 294 296 297 296
298 298 299 299 299 299 299 300 300 300 300 300 294 292 287 285 285 286 291 290 288 289 289 288 287 285 288 284 286 286 286 285 288 291 290 285 288 293 287 288 290 291 292 291 288 290 290 290 287 291 291 287 291 290 292 290 291 296 293 294 297 294 288 293 291 289 288 292 294 294 294 293 290 292 293 293 293 293 293 293 294 295 294 295 295 295 294
298 298 298 299 298 299 299 299 299 299 300 294 291 290 293 293 293 293 286 283 286 287 288 287 286 284 286 284 286 287 287 286 289 289 293 290 288 290 288 290 290 292 291 292 290 293 294 294 295 295 294 288 293 291 291 297 291 293 292 294 293 294 290 294 291 287 286 290 291 292 294 293 291 290 292 292 292 290 291 291 294 293 291 293 294 292 292
298 298 298 299 297 298 298 298 299 299 299 295 292 287 295 295 295 294 289 281 287 285 287 287 286 281 286 286 286 286 287 289 290 286 292 293 293 293 292 292 290 290 290 290 292 295 296 296 299 299 298 300 298 299 299 298 294 292 293 295 292 292 291 289 289 286 285 289 291 291 290 288 286 288 291 293 293 294 295 295 296 295 296 292 289 290 297
297 298 297 297 298 297 298 298 299 298 298 293 290 289 292 290 289 289 288 280 283 285 285 284 283 286 288 289 287 289 288 289 289 284 286 293 293 296 295 293 290 288 290 293 299 299 298 299 300 301 299 297 296 297 296 298 298 296 294 291 292 293 292 289 291 285 286 287 288 289 286 279 282 294 298 296 293 294 292 292 294 296 297 295 297 298 300
296 296 297 297 297 298 298 298 298 298 297 298 296 291 294 295 292 290 285 279 281 285 283 282 284 286 286 288 288 287 287 287 288 291 287 291 293 294 294 294 293 287 296 301 301 299 301 301 300 300 299 297 296 297 295 293 296 297 297 293 291 290 291 290 290 288 283 285 286 283 277 280 292 301 300 299 298 297 295 296 297 297 298 298 297 298 299
296 296 296 297 297 297 298 297 297 298 298 297 296 290 294 295 290 287 285 282 279 282 281 282 286 287 288 288 288 288 289 290 291 291 291 290 291 293 294 293 292 294 300 300 300 297 292 288 291 292 292 293 294 294 293 292 293 296 296 296 293 289 289 290 289 288 287 284 283 277 279 289 296 297 299 300 299 299 297 295 297 298 298 298 297 298 300
296 296 296 296 296 296 297 297 297 297 297 297 294 293 294 293 287 285 284 281 280 283 284 284 285 285 286 287 287 288 289 289 290 291 289 292 290 292 294 296 297 299 300 302 298 294 287 289 284 285 284 286 286 285 288 292 293 293 293 294 295 293 290 290 286 289 281 282 284 284 291 290 293 293 293 296 293 294 293 289 293 299 300 299 298 299 300
295 295 295 296 296 296 296 296 297 297 297 297 296 294 293 293 291 287 288 284 278 282 284 278 282 284 286 285 288 286 286 287 287 287 291 294 292 293 295 297 299 299 302 298 293 292 288 287 283 281 283 282 278 280 286 284 286 287 288 288 290 293 289 290 287 284 288 283 281 283 283 281 288 295 298 301 301 300 300 295 292 301 301 302 300 299 300
295 295 295 296 296 296 296 296 296 296 296 297 295 293 293 294 293 290 287 283 281 275 280 284 286 286 285 285 287 286 286 286 286 287 287 288 289 293 296 298 298 300 299 297 293 290 288 284 282 282 279 281 285 284 279 285 284 286 287 287 290 289 292 289 288 285 285 283 281 281 280 284 293 296 299 300 301 302 301 293 288 298 301 301 301 300 300
295 295 295 295 295 296 296 296 297 296 296 296 293 294 291 294 291 288 285 284 282 277 285 288 288 287 285 285 287 286 287 286 288 284 284 285 288 290 293 297 299 298 297 294 291 288 286 285 285 284 285 286 284 282 286 285 283 283 285 287 286 286 287 287 285 281 284 284 282 282 286 286 293 297 298 299 301 302 296 284 285 297 301 302 301 300 300
295 295 295 295 295 295 296 296 296 296 296 297 294 292 291 294 293 291 286 283 280 280 284 287 286 284 283 285 284 288 290 289 288 289 287 288 289 288 289 291 290 297 299 290 289 286 285 285 282 283 282 287 287 288 280 285 283 282 282 284 284 285 285 286 283 283 284 285 284 287 288 294 296 295 297 299 301 297 286 282 291 298 300 301 302 301 301
294 294 294 295 295 295 295 295 296 296 296 296 295 294 292 294 293 292 286 283 281 277 286 289 289 288 290 293 290 290 291 291 290 286 286 286 288 291 292 291 295 288 294 288 289 286 285 285 288 288 285 285 286 283 288 284 284 287 287 283 284 285 286 285 286 284 283 285 284 285 289 295 297 296 299 300 295 285 285 295 296 298 298 299 302 301 302
294 294 294 295 295 295 295 295 296 295 296 296 295 289 292 294 293 291 285 281 282 280 284 287 289 286 290 289 288 287 288 290 290 288 286 284 291 294 290 286 292 292 290 291 285 288 286 284 286 288 286 285 286 290 286 286 289 286 286 288 285 285 284 282 283 286 286 286 284 283 281 291 297 296 295 297 290 292 296 293 293 298 296 298 299 302 301
294 294 294 294 295 295 295 295 295 295 295 295 294 291 288 293 293 292 290 286 281 278 281 289 290 289 290 290 291 293 291 288 290 288 289 290 293 292 282 282 288 289 287 288 283 285 286 285 287 286 289 288 288 288 284 286 285 288 289 287 287 291 285 285 286 290 282 283 281 283 291 297 298 296 290 295 298 300 299 299 292 295 297 296 297 298 300
294 293 293 293 294 294 295 295 295 295 295 295 295 292 287 291 292 291 290 287 282 280 283 289 292 291 292 294 295 296 296 295 296 297 292 289 293 293 291 291 290 290 291 292 289 289 290 290 292 289 287 286 291 286 288 284 282 286 288 289 283 291 288 290 286 291 289 286 289 293 291 296 298 299 299 300 301 301 298 300 298 296 296 298 297 297 298
293 293 294 294 294 294 294 295 295 295 294 295 294 290 286 289 289 290 288 282 285 286 287 286 289 289 292 294 295 295 297 300 300 299 298 293 290 293 292 291 291 296 295 296 290 290 291 292 288 291 290 290 287 286 287 288 286 287 285 290 290 293 295 292 291 291 293 295 292 297 294 295 296 298 299 300 300 298 294 297 297 298 298 297 298 299 297
293 294 293 293 293 294 294 294 294 294 294 295 293 290 288 289 289 288 286 285 282 280 284 286 283 282 285 288 295 296 295 293 297 301 302 299 290 291 295 296 297 292 291 296 300 294 293 293 291 293 287 290 291 287 285 284 286 288 288 287 289 293 295 291 289 291 291 286 296 294 292 294 295 296 297 298 299 297 294 294 298 299 298 297 301 299 298
292 292 292 293 293 294 294 294 294 294 294 294 294 294 293 289 288 287 283 278 280 281 277 284 284 288 292 294 295 294 296 297 296 295 299 300 298 294 291 298 301 296 294 296 294 294 294 290 287 290 287 291 291 287 291 288 287 292 286 288 289 288 296 292 291 292 290 290 295 296 295 295 296 297 295 295 297 297 296 297 296 296 297 297 295 295 295
293 293 294 293 293 293 294 294 294 294 295 294 293 290 288 287 289 288 285 285 283 281 278 281 287 291 290 292 293 295 295 295 297 296 298 301 302 301 301 301 297 301 300 296 293 294 292 292 292 291 289 289 293 290 289 291 289 292 290 289 293 293 294 288 292 290 293 295 296 295 293 294 294 295 296 297 298 297 295 294 294 293 293 292 292 294 294
292 293 293 293 293 293 294 294 294 294 295 295 292 292 289 288 289 286 284 284 279 278 280 281 287 287 290 290 293 293 295 295 296 297 298 299 302 302 301 299 298 298 297 294 292 292 292 292 291 289 292 290 292 290 289 289 288 288 289 290 292 291 288 292 291 288 289 290 292 293 289 289 293 294 296 297 298 298 296 294 292 291 291 291 291 290 291
291 292 292 293 293 293 294 294 294 294 294 294 293 292 290 287 287 288 287 286 281 276 279 285 285 286 289 287 292 293 295 294 296 296 297 299 301 301 300 299 298 296 294 293 290 291 290 289 288 290 289 288 289 286 286 288 289 288 289 290 294 292 292 292 289 289 289 294 296 297 296 296 296 297 296 296 297 297 295 293 292 291 292 293 292 291 290
290 291 292 293 293 293 294 294 294 294 294 292 291 288 287 287 288 288 288 288 286 282 280 284 289 286 285 287 293 291 294 294 294 296 298 297 297 299 300 299 297 297 296 295 293 291 291 291 292 288 288 291 291 287 286 284 285 285 289 293 294 296 297 296 295 296 296 298 298 297 296 295 295 297 296 296 296 296 295 295 294 293 293 293 294 294 293
290 291 292 293 293 293 294 293 294 294 293 290 287 284 281 284 287 286 288 288 286 283 278 282 284 286 287 286 286 288 290 293 291 294 297 297 295 294 299 299 297 298 295 294 293 290 290 288 285 288 288 292 289 287 286 287 286 288 293 295 296 296 297 298 299 296 295 297 298 298 297 296 295 296 296 296 296 296 296 296 295 294 293 293 294 294 294
291 291 292 293 293 293 294 294 294 294 292 288 285 279 277 276 284 288 289 289 287 283 281 284 284 287 287 286 284 286 288 292 292 288 295 297 296 294 291 297 294 296 292 290 291 289 289 288 286 287 289 290 290 287 285 286 286 288 292 294 295 295 295 297 298 298 296 294 296 296 297 296 295 296 296 296 296 296 296 296 295 293 294 292 293 294 294
290 291 292 292 292 293 293 294 294 293 290 287 283 280 281 282 286 289 291 290 287 282 280 282 283 284 286 287 287 286 288 288 289 288 287 293 289 290 289 294 290 295 294 292 288 289 288 289 289 287 287 290 291 287 288 287 286 288 293 293 295 295 296 296 296 294 294 296 294 292 292 292 292 295 295 297 297 296 295 296 295 294 291 292 291 290 288
291 292 291 292 292 292 293 293 293 292 289 291 294 293 293 293 293 291 291 288 284 282 284 282 284 285 284 285 287 286 287 288 287 289 286 288 287 290 287 289 289 289 291 292 288 289 288 288 289 288 287 288 285 284 286 286 288 293 293 293 293 294 295 295 295 293 294 295 296 292 291 292 292 295 296 297 296 295 295 294 291 291 290 288 287 286 285
291 291 291 292 292 293 292 292 292 292 291 288 284 285 289 292 291 291 291 286 282 284 284 282 282 282 282 287 284 286 288 288 287 288 285 288 288 288 288 288 290 289 287 288 288 287 286 288 290 289 289 285 287 286 284 288 292 290 292 292 292 292 293 293 294 292 292 293 294 293 294 295 294 292 289 292 294 294 293 290 288 288 287 288 288 288 288
291 291 291 292 292 292 292 291 288 286 283 284 285 288 290 290 291 292 288 283 278 281 282 283 286 281 279 281 282 285 286 288 287 288 287 286 287 287 288 286 287 286 286 289 286 287 287 286 289 287 285 287 285 283 286 289 291 289 288 287 287 289 288 289 290 291 291 290 290 289 290 291 291 290 291 292 291 290 290 287 288 289 288 288 289 288 287
291 291 291 292 292 291 288 287 286 283 282 282 282 287 290 291 291 290 286 285 281 278 279 281 283 283 284 278 280 284 289 286 285 285 286 288 287 287 288 289 285 286 287 286 286 287 287 289 289 285 287 284 283 286 289 287 287 290 288 288 287 287 288 289 289 289 289 287 287 287 288 290 291 291 291 289 289 288 289 288 288 288 289 289 289 287 286
290 291 290 288 287 284 281 281 286 283 281 285 288 291 291 290 286 285 285 283 284 284 279 278 280 278 279 283 285 285 287 283 287 286 286 286 286 287 288 287 285 287 286 286 286 286 287 288 286 286 285 283 287 281 277 277 278 279 280 278 279 280 282 284 287 288 285 284 284 285 287 289 289 289 289 287 287 287 287 287 287 287 287 287 287 285 285
290 288 283 283 281 277 276 279 281 286 289 287 288 285 284 282 278 279 280 278 280 283 279 280 275 277 278 280 280 285 286 284 286 285 284 287 286 283 286 287 287 286 280 284 286 289 287 285 284 285 286 281 275 275 275 274 276 276 275 275 275 276 278 281 285 286 284 283 282 282 282 283 285 285 286 284 284 285 286 288 288 288 289 289 288 286 285
287 283 280 279 278 275 276 279 288 288 285 285 285 280 278 278 277 275 274 276 277 275 278 277 275 277 277 280 280 285 284 284 283 285 282 287 286 281 285 283 285 286 282 285 285 290 282 281 283 284 286 280 278 274 274 274 273 273 273 273 273 274 275 279 280 283 286 286 286 286 287 287 286 285 286 285 284 286 286 286 287 286 286 286 285 283 283
283 279 276 275 276 279 285 286 287 282 283 281 279 278 274 276 274 272 276 273 273 275 276 274 277 277 277 275 278 280 285 283 282 282 285 284 286 283 285 285 285 284 280 281 284 288 285 280 282 284 285 282 275 271 272 272 272 271 271 271 272 273 273 274 275 275 277 280 279 283 283 282 286 288 286 286 284 283 283 284 284 283 284 283 282 282 282
281 280 278 276 280 282 283 283 282 280 278 276 275 274 273 272 272 272 272 271 269 270 275 273 275 277 279 278 279 278 283 283 281 281 283 282 286 285 283 281 287 281 278 280 284 285 284 283 283 282 284 271 268 268 269 269 270 270 270 270 271 272 272 273 272 272 274 276 276 277 277 279 282 284 285 284 284 283 282 280 280 280 280 280 279 277 275
283 282 283 285 284 283 280 278 277 274 274 275 271 268 270 271 274 273 272 267 267 269 272 274 272 274 275 278 276 279 280 283 282 281 282 279 283 282 280 279 278 279 277 281 285 282 284 280 279 280 269 267 266 266 266 266 267 268 269 268 270 271 271 270 270 269 270 270 270 271 271 272 272 274 279 281 280 278 277 275 273 273 274 274 274 275 274
287 284 282 278 276 275 274 272 272 271 267 266 267 266 269 268 268 267 268 271 272 270 272 276 275 278 280 280 278 281 280 284 280 278 279 278 282 279 276 275 276 275 278 282 281 279 278 278 281 273 266 266 264 263 263 264 264 266 268 268 268 271 270 269 268 268 268 268 268 269 269 269 269 269 270 271 270 268 268 270 271 271 272 273 273 273 273
283 280 275 270 271 270 273 265 272 269 265 267 265 262 264 266 267 267 267 267 267 268 270 266 268 269 271 277 275 277 279 280 282 278 276 276 276 275 275 273 274 279 282 277 277 277 275 268 267 267 266 264 264 262 262 262 263 264 267 266 267 269 270 270 270 269 268 268 268 267 268 268 268 268 268 268 268 267 267 267 269 270 270 270 270 270 270
275 271 268 267 266 268 268 262 268 264 260 263 267 263 263 263 265 265 265 267 265 265 267 267 268 267 270 276 277 276 277 275 281 276 273 276 273 274 273 273 275 274 275 274 274 274 271 267 268 265 263 261 261 261 261 261 261 262 264 265 264 266 267 267 267 267 266 266 266 266 265 265 265 265 265 266 267 268 268 268 269 269 269 268 268 269 269
269 267 267 264 262 263 263 259 262 262 264 264 263 264 263 265 265 265 267 265 264 264 264 264 264 266 271 276 273 273 272 272 274 273 273 272 273 270 274 278 276 272 271 271 271 270 269 267 264 263 261 260 260 260 260 260 260 261 262 261 262 263 264 265 265 265 265 265 265 265 264 263 262 262 262 263 264 265 267 268 268 268 267 266 265 265 267
271 268 267 266 262 263 266 262 262 263 262 263 264 262 261 262 263 263 265 265 263 263 262 264 264 266 270 272 273 273 272 272 272 273 274 270 270 272 275 272 268 268 269 268 268 268 266 264 262 261 259 259 259 259 259 259 259 259 259 260 260 261 263 263 264 264 264 264 264 264 264 263 262 263 263 261 262 263 264 265 266 266 264 264 264 264 264
265 268 267 261 259 262 263 263 264 263 263 262 263 262 262 262 261 264 266 264 262 262 261 263 269 272 272 276 275 271 271 271 272 271 273 272 274 270 270 268 266 266 267 267 266 266 263 262 260 259 259 258 258 257 258 258 258 258 258 258 259 259 260 261 261 263 264 263 263 263 263 263 262 262 261 260 260 261 262 264 265 265 265 264 264 264 264
266 261 262 260 260 262 263 263 264 265 264 263 262 261 262 262 263 264 263 262 261 260 262 262 267 270 271 272 270 271 269 271 269 269 271 269 268 266 267 265 266 264 266 266 265 262 260 259 259 259 258 258 257 257 257 257 258 258 258 257 257 258 259 259 259 261 262 263 263 263 262 262 262 262 261 261 259 259 260 260 261 261 262 262 262 262 262
263 261 261 260 261 262 264 263 264 265 265 264 262 262 261 261 262 263 262 259 260 258 261 266 267 270 271 270 268 268 268 267 266 269 268 265 264 266 267 264 265 266 265 263 262 259 258 257 258 259 258 257 257 256 256 257 257 257 258 258 258 258 258 258 258 259 259 260 261 261 261 261 260 260 260 259 259 259 259 258 259 259 259 260 260 260 259
261 259 257 257 258 258 259 261 261 260 262 261 260 260 259 259 260 261 261 258 256 259 268 267 265 264 267 267 267 266 267 271 268 266 266 264 266 266 266 265 264 263 261 258 257 257 256 256 255 256 256 256 256 256 256 257 257 257 258 258 258 258 258 258 258 258 259 259 260 260 260 260 260 260 260 260 260 259 258 258 257 257 257 257 257 258 257
261 260 258 258 257 257 257 259 260 260 260 260 259 260 259 258 260 260 260 257 259 268 267 266 266 265 264 264 266 268 269 269 266 267 265 265 265 265 264 262 261 259 259 259 257 256 255 255 255 254 254 254 255 255 256 257 257 257 257 258 257 257 257 257 258 258 259 259 259 260 260 261 262 262 263 262 262 260 258 257 257 256 257 256 256 256 256
Wind_Speed
9 7 8 8 7 7 7 8 10 11 11 5 4 3 5 3 7 7 9 9 10 8 5 4 6 8 9 4 4 5 5 6 6 7 7 6 3 2 2 3 1 4 5 3 4 7 4 7 7 4 7 14 14 9 29 20 20 14 8 11 1 9 4 9 7 6 2 3 3 1 5 4 5 8 11 15 17 18 14 7 1 6 8 10 9 11 15
8 10 8 7 7 6 6 8 8 11 7 5 6 7 6 6 6 4 6 9 9 8 9 10 11 9 6 7 7 6 5 7 8 9 9 7 6 7 4 3 7 4 5 5 5 7 4 7 9 8 8 6 5 13 26 26 15 17 11 13 14 9 6 12 8 4 1 1 2 2 4 5 10 13 16 18 15 15 11 3 1 3 9 14 10 16 17
9 12 11 10 8 7 7 6 8 10 6 5 6 6 6 6 3 3 5 8 9 11 9 8 6 5 8 6 8 8 6 7 10 11 11 10 8 7 7 8 7 5 3 5 6 8 8 0 12 5 2 4 5 11 23 27 15 18 14 5 10 2 9 14 14 17 16 14 14 17 18 20 12 12 12 15 16 17 13 9 5 11 10 13 11 14 18
10 10 11 10 10 9 8 9 8 8 7 2 3 5 6 5 5 4 3 5 8 10 7 8 6 7 8 7 8 8 9 7 9 9 9 9 8 8 4 8 9 6 7 6 5 7 7 5 1 6 2 3 2 5 20 22 16 16 15 14 13 5 7 11 9 12 11 2 3 13 16 10 5 11 14 15 13 11 10 4 9 14 13 12 15 17 20
9 10 10 10 10 11 9 11 10 7 7 6 2 2 1 3 4 7 8 3 6 9 9 10 9 11 12 7 8 13 16 9 7 14 7 11 11 8 9 6 9 8 9 7 3 5 8 6 2 5 8 2 3 7 16 20 23 17 12 16 9 2 8 12 14 14 10 4 6 12 17 15 12 13 13 13 15 14 11 11 14 15 9 15 16 27 22
7 8 9 7 8 8 9 10 11 11 9 8 3 5 3 5 6 7 7 5 9 10 11 14 13 15 13 11 7 12 14 12 6 9 13 7 13 9 6 11 10 11 12 8 7 6 4 6 7 5 2 2 4 5 12 14 14 15 9 14 13 11 12 16 14 13 6 10 12 17 16 15 16 17 16 19 20 19 20 21 25 21 16 22 24 19 20
4 8 7 8 7 7 8 7 9 10 12 10 4 4 4 4 2 6 9 8 7 15 16 18 17 16 16 9 10 12 13 15 14 8 10 10 9 14 7 13 15 13 12 11 8 9 6 8 7 7 7 11 4 5 5 10 12 18 7 10 4 8 9 10 14 10 5 7 14 17 19 15 16 20 22 21 21 23 24 26 27 23 22 29 15 8 23
4 3 6 7 6 7 7 7 7 8 11 8 6 6 5 6 6 4 7 9 8 11 10 9 14 14 16 13 14 12 13 16 15 11 9 7 12 12 14 13 16 18 16 14 13 13 15 13 10 11 12 6 8 9 9 6 1 8 8 8 5 10 10 14 14 11 11 9 10 15 18 18 18 21 24 25 24 26 30 28 24 20 24 25 19 17 19
4 2 5 5 4 6 6 6 8 7 10 5 6 4 6 1 2 3 0 8 10 11 11 13 15 13 15 16 15 13 16 17 17 15 14 16 12 14 19 20 17 17 18 18 20 17 19 19 14 13 17 14 16 13 9 11 15 14 11 10 8 12 6 11 10 10 8 10 11 15 14 15 17 19 22 25 26 24 27 25 22 18 24 22 12 11 19
7 6 4 7 3 3 5 5 8 8 10 3 3 5 4 3 2 2 2 5 7 11 12 13 13 16 16 15 19 14 20 20 17 14 13 18 17 16 21 20 15 14 19 22 23 22 20 19 9 2 13 5 3 3 3 13 15 14 17 14 14 14 11 11 12 13 13 14 11 13 7 5 9 17 24 31 31 27 20 19 16 24 25 13 12 24 19
5 6 6 5 6 5 5 5 7 6 4 5 4 2 3 5 3 3 2 7 8 11 11 13 16 15 15 19 19 20 18 20 18 17 9 15 19 16 16 16 14 12 18 24 25 22 17 13 10 6 5 8 2 10 7 7 16 17 16 10 9 16 15 8 11 11 5 9 8 7 7 14 15 19 24 24 24 26 22 20 25 24 17 18 22 18 8
2 2 3 5 7 7 4 5 6 8 8 3 4 3 2 3 2 2 5 11 13 12 13 14 16 15 20 23 20 21 24 24 23 21 21 15 21 22 19 15 12 10 13 19 4 6 3 3 2 2 6 8 9 7 6 8 16 14 9 13 17 19 17 9 9 10 8 11 12 10 15 17 21 5 13 22 25 21 24 25 20 21 24 28 24 23 20
4 3 6 6 5 6 7 6 6 5 6 4 4 5 4 3 4 4 4 7 11 10 13 18 21 22 21 22 24 26 25 25 23 24 24 21 18 18 16 15 16 17 16 10 13 14 10 5 4 6 8 7 9 11 12 10 13 15 11 10 11 14 15 9 9 5 6 7 11 11 17 15 4 4 11 17 19 21 19 20 23 29 29 27 27 28 22
3 4 5 5 6 7 7 8 7 4 5 4 4 4 3 6 6 5 4 4 10 9 12 15 17 22 24 24 23 25 26 26 25 24 24 23 24 19 16 14 18 20 7 14 13 13 3 5 4 4 3 3 2 7 13 15 14 16 15 9 5 10 11 12 10 8 10 9 13 20 1 2 5 5 6 16 16 18 20 14 20 26 21 22 24 26 23
5 5 6 7 7 6 7 7 8 11 9 6 4 4 5 6 5 4 1 5 13 11 10 16 14 22 27 26 24 21 19 20 22 21 25 21 21 19 16 16 18 14 10 12 9 9 6 4 6 8 6 9 11 8 5 8 2 3 2 2 3 4 11 8 11 7 8 14 8 6 10 12 14 21 12 14 9 15 20 14 17 13 24 25 24 22 19
7 7 8 8 8 8 8 9 8 9 9 9 5 5 6 7 7 5 5 7 9 13 15 22 23 15 18 20 24 26 19 16 18 18 18 18 18 21 18 15 15 11 13 10 6 9 9 9 10 12 11 10 6 4 7 6 4 1 4 2 3 4 2 5 10 7 9 10 12 10 12 18 19 9 15 17 9 8 10 4 19 14 19 21 21 20 18
8 9 9 9 9 9 10 10 9 9 10 9 6 6 7 9 7 7 7 7 9 19 12 4 10 15 14 15 15 19 19 19 17 18 17 18 20 18 12 14 11 15 18 12 8 8 9 8 9 5 7 7 10 7 7 9 9 8 6 2 4 5 6 4 8 4 9 12 12 11 7 12 7 10 9 17 17 15 11 3 21 14 19 20 21 20 19
9 9 11 11 11 11 11 11 11 11 11 11 8 6 7 9 11 8 7 9 13 17 10 11 15 15 20 21 22 20 17 17 18 15 16 17 13 13 12 8 10 15 18 16 10 12 13 11 14 11 10 5 3 6 11 10 11 12 12 14 7 7 5 7 12 11 13 17 3 3 6 9 4 12 16 17 20 17 12 21 19 15 24 23 22 22 21
10 11 11 12 12 13 13 13 12 12 12 11 8 7 8 10 11 11 7 9 11 16 7 19 24 25 22 13 15 14 11 18 18 18 19 16 14 13 14 10 12 10 17 14 12 12 13 8 5 6 9 6 4 9 5 10 9 7 16 14 10 10 8 4 6 10 9 7 10 8 8 8 10 8 16 19 15 11 25 13 4 9 4 9 20 27 25
12 12 12 12 13 14 14 14 14 13 13 13 8 7 6 8 11 13 11 11 9 19 8 13 18 32 20 19 20 19 19 16 17 19 16 19 11 15 11 12 13 6 11 12 15 10 11 14 8 3 7 7 8 4 5 8 1 12 12 19 17 16 11 12 12 6 3 1 2 2 9 8 24 15 12 17 18 9 5 6 3 1 11 10 10 9 9
13 12 12 13 14 15 15 15 15 14 14 14 11 6 9 8 12 12 12 11 13 18 16 16 19 24 19 26 31 28 25 23 21 21 22 19 15 13 16 16 15 9 12 13 14 15 8 12 13 6 3 6 6 6 10 10 3 5 14 17 13 14 12 7 7 10 10 14 14 12 17 1 22 21 18 15 0 4 4 8 3 3 5 9 8 7 6
11 12 13 14 14 15 15 16 16 15 15 15 13 5 11 5 8 9 11 13 16 17 11 6 7 16 24 29 27 27 25 28 27 22 19 18 14 16 5 11 18 14 6 9 9 9 12 4 4 8 11 5 5 9 10 10 9 5 2 5 8 9 14 17 19 16 14 15 17 6 2 15 14 9 9 14 12 5 5 3 9 8 3 3 7 9 5
12 14 13 13 14 16 16 17 16 16 15 15 11 6 10 7 5 5 7 11 10 12 10 12 14 16 16 15 11 13 19 21 25 23 21 17 13 15 19 15 14 10 6 12 17 11 8 7 7 5 8 9 13 9 10 9 6 9 11 13 13 18 21 2 1 10 10 10 4 0 1 7 14 10 7 23 17 5 1 3 8 4 8 8 9 7 10
13 12 14 15 16 16 16 17 17 16 16 16 12 6 7 6 6 4 6 8 9 13 11 14 10 15 19 23 17 11 8 6 17 23 22 22 16 12 13 14 9 5 4 11 9 13 8 7 3 6 6 6 13 11 11 9 10 11 11 10 6 6 13 7 10 6 13 14 20 16 6 9 11 13 3 10 14 8 5 3 4 4 8 8 2 9 10
14 15 16 18 17 17 16 16 16 16 16 17 14 8 6 6 4 4 8 10 7 9 13 7 19 21 7 3 2 6 8 2 0 5 16 23 21 16 16 14 14 17 19 14 2 4 7 9 3 8 17 8 14 10 12 12 10 14 10 9 9 9 16 15 17 15 15 22 23 15 7 8 11 10 8 12 14 6 2 3 2 1 2 7 5 5 7
15 16 16 17 19 19 19 17 16 15 15 17 15 7 5 8 4 4 9 8 8 7 13 16 9 6 3 5 8 4 2 2 5 8 14 20 22 21 13 11 3 1 10 4 4 11 8 7 8 4 12 5 8 6 10 6 2 12 16 11 15 10 19 15 18 15 15 15 4 14 11 12 14 14 10 11 12 10 7 7 4 2 5 5 4 1 6
16 17 18 19 20 20 20 18 16 15 16 17 11 7 6 6 6 7 8 6 6 8 12 15 3 1 4 9 2 1 3 2 4 7 10 9 18 23 16 11 14 7 9 7 2 3 4 5 8 11 11 2 8 4 1 5 5 7 12 4 12 9 16 15 13 13 14 16 19 20 15 17 19 17 10 3 4 8 10 8 6 5 6 7 7 3 1
17 18 19 19 21 21 21 19 17 16 16 19 12 7 6 8 9 11 12 9 7 9 10 8 4 3 1 4 2 2 1 4 3 7 11 11 9 18 19 17 13 10 10 11 8 7 7 10 9 0 2 2 8 3 0 4 3 1 9 9 12 16 19 17 15 19 18 28 27 18 19 8 5 12 11 9 10 13 13 11 11 9 8 9 10 8 4
18 19 20 20 21 22 21 19 17 15 18 17 6 7 10 12 10 12 14 10 8 6 10 13 2 4 6 3 3 1 2 1 3 6 8 14 8 11 19 18 16 11 9 10 8 6 7 7 2 5 3 5 5 3 6 5 5 10 14 19 19 19 20 19 21 23 26 17 8 11 13 12 9 16 14 14 10 10 14 14 12 11 10 9 10 11 12
19 19 20 21 21 21 20 19 18 15 17 7 2 4 7 5 7 9 9 9 6 4 8 9 6 2 2 2 2 1 1 3 3 3 8 10 12 8 12 19 14 12 9 8 9 12 5 2 2 3 4 3 3 3 6 5 9 12 14 13 14 14 11 15 20 21 15 6 12 13 13 9 7 15 17 16 15 14 15 16 13 10 8 10 11 9 7
19 20 21 22 21 21 20 18 17 17 16 4 2 5 4 5 2 6 8 9 5 5 6 7 3 1 1 1 2 1 2 1 5 3 3 5 10 10 4 2 7 13 11 3 7 5 5 8 4 2 1 1 2 5 6 7 10 11 12 13 18 18 16 19 17 16 3 5 6 9 10 8 6 10 15 18 17 16 14 12 11 11 12 11 11 9 6
19 22 22 22 21 21 20 19 18 16 9 6 7 6 3 3 3 6 11 11 6 5 7 7 2 2 2 1 1 1 1 1 3 3 1 3 2 2 3 1 2 1 9 11 3 2 3 3 5 5 4 3 3 2 2 6 12 15 12 13 12 15 17 15 11 6 3 7 10 7 7 6 9 17 15 19 18 15 17 16 11 9 12 9 4 3 3
20 22 23 21 22 21 20 19 19 15 8 10 15 18 16 17 17 15 11 8 4 6 3 6 3 3 3 1 2 1 2 2 2 3 3 1 1 2 2 0 0 1 5 6 6 6 0 1 3 6 3 2 3 1 3 10 14 16 7 6 8 11 15 13 9 5 7 10 15 13 13 15 12 13 10 13 16 16 15 9 6 8 9 8 7 4 2
22 22 22 22 21 21 21 20 18 16 12 7 7 7 6 12 11 16 11 1 5 5 4 5 2 4 3 1 4 1 1 3 3 6 5 1 0 1 3 3 1 4 3 3 2 3 1 0 7 5 4 1 1 3 6 10 16 6 6 9 6 8 9 12 11 9 9 10 7 3 3 7 7 5 3 4 9 5 5 7 7 8 7 9 9 11 8
22 22 21 22 22 21 22 18 7 3 5 6 5 3 3 10 16 15 5 2 4 4 4 5 2 4 3 2 3 2 0 0 5 4 2 1 1 3 2 3 1 5 2 2 2 1 4 4 3 5 7 5 5 7 6 12 12 4 1 5 2 4 3 4 8 8 6 3 2 1 1 10 13 11 10 8 10 11 12 10 11 13 11 10 11 11 9
20 21 21 20 22 16 6 3 3 2 3 4 5 8 17 20 16 6 3 4 4 4 4 3 2 3 4 6 5 2 2 2 2 3 2 2 1 2 0 3 5 1 3 1 4 2 4 4 4 7 4 7 7 8 10 3 3 6 4 1 2 0 1 3 3 5 8 5 3 3 5 7 13 14 10 7 9 7 12 12 10 8 12 12 12 10 9
19 19 19 16 8 2 3 2 1 2 3 6 13 22 23 14 1 1 1 2 3 3 3 5 2 2 2 2 3 0 3 5 1 2 1 4 5 1 2 2 6 3 2 1 3 8 3 2 2 6 8 9 8 3 6 3 3 3 4 5 6 6 5 6 4 4 4 3 2 1 2 5 6 5 10 10 10 8 8 10 14 13 12 13 11 11 13
17 13 3 1 1 2 2 2 1 3 13 18 13 6 0 2 1 1 1 2 2 2 2 1 3 3 3 1 5 1 1 2 1 4 2 0 4 1 1 1 3 5 6 4 4 3 4 3 5 8 6 2 5 6 4 4 2 3 5 6 6 7 6 6 3 8 7 4 2 3 1 0 2 4 9 9 8 11 14 14 13 13 11 11 11 11 9
9 3 0 0 1 2 1 2 5 17 11 5 2 1 1 0 1 1 1 2 2 2 2 2 4 4 4 0 3 3 1 2 4 1 5 3 2 2 2 8 1 2 2 4 5 6 4 2 2 4 9 4 4 3 4 4 4 4 5 6 7 7 7 6 5 3 7 6 4 5 10 12 16 16 11 12 10 8 5 4 5 4 4 5 6 6 7
4 5 2 2 2 3 6 7 10 8 2 1 0 0 1 1 1 1 1 1 1 1 3 3 2 3 3 3 0 4 2 1 6 5 5 2 2 2 2 1 1 3 6 7 5 5 6 6 4 5 10 6 5 7 5 5 4 6 6 7 8 8 7 6 4 3 4 4 4 4 3 6 5 3 8 10 10 10 6 4 4 3 4 5 7 9 9
4 5 2 2 3 3 4 7 5 1 1 0 0 0 1 1 1 1 2 1 2 2 1 3 4 3 1 1 3 3 2 2 3 2 0 2 0 0 2 4 1 2 1 5 2 4 2 3 6 9 6 3 4 6 6 5 5 6 6 7 8 6 6 5 5 6 5 5 7 7 8 8 7 3 4 4 6 7 6 6 6 5 7 8 9 6 7
5 6 4 4 4 4 4 1 1 1 0 0 0 1 1 1 1 1 2 2 3 4 4 4 5 5 6 5 4 3 1 1 1 1 1 2 0 0 1 1 2 2 3 1 4 3 4 7 6 7 3 3 6 6 6 6 7 7 8 9 8 6 5 5 5 7 7 5 4 6 7 10 11 9 5 7 7 7 7 8 9 8 9 8 9 9 8
9 3 1 1 1 1 0 1 1 1 2 3 2 2 2 3 3 3 2 2 1 2 4 3 3 6 4 1 2 1 2 3 1 1 2 2 1 2 2 1 1 3 2 2 2 3 5 6 7 3 5 4 6 7 7 7 8 7 7 7 7 5 5 5 5 5 6 7 7 7 7 9 9 8 9 10 12 11 10 9 8 8 8 9 9 9 8
1 1 0 1 0 1 1 1 2 2 3 2 2 2 4 3 4 4 3 3 6 4 5 7 8 8 4 3 2 2 1 0 2 1 3 1 2 1 2 2 3 1 3 1 1 4 2 3 3 3 4 5 5 8 8 9 8 7 6 8 8 6 6 6 5 6 7 7 7 8 9 11 11 11 12 12 12 11 12 11 8 9 9 11 11 10 9
1 1 1 1 1 2 1 1 2 3 2 3 4 2 3 2 4 3 3 4 2 6 8 6 6 5 6 4 0 0 2 1 2 1 1 1 3 2 1 2 1 1 2 3 2 2 3 1 3 3 6 7 8 8 8 8 8 7 6 6 9 9 9 8 8 7 6 7 7 8 9 9 11 11 12 11 10 10 10 10 8 9 10 11 11 11 8
3 0 1 2 4 3 2 1 2 2 2 2 2 3 4 3 3 5 2 3 5 7 8 8 7 5 5 2 2 2 2 1 2 2 1 1 2 1 1 0 2 2 1 1 2 4 2 2 4 4 6 6 7 7 8 8 8 7 6 6 8 8 9 8 7 8 6 6 6 9 9 9 9 11 10 9 9 10 10 9 8 9 10 14 14 12 9
1 1 1 1 3 1 2 2 3 1 3 3 1 3 4 6 6 7 6 4 6 7 9 8 7 5 3 4 2 0 1 1 2 1 0 2 2 1 3 2 2 2 2 2 2 1 2 2 3 4 5 6 7 7 6 7 7 7 7 7 7 9 9 8 8 9 8 8 10 10 10 10 10 10 10 12 12 12 11 11 11 10 11 12 9 10 11
1 1 1 3 1 1 4 2 0 1 1 1 3 3 5 5 5 4 2 3 7 7 7 8 4 1 2 2 1 0 1 1 1 1 1 1 2 3 1 3 2 2 1 1 1 3 2 2 3 5 5 5 5 6 6 6 7 8 8 7 8 8 8 8 8 9 9 9 9 10 11 13 13 13 14 13 12 12 12 11 11 11 11 11 11 11 12
3 3 3 2 0 1 0 1 1 1 2 1 2 3 5 6 5 5 6 6 6 6 5 4 3 4 1 1 1 2 3 4 3 1 1 3 3 1 1 2 2 2 2 3 3 3 2 2 3 4 5 5 5 5 6 6 7 7 8 8 7 7 7 8 9 10 9 10 10 10 10 9 8 10 10 11 13 10 9 8 9 10 10 11 13 13 11
4 4 5 4 1 1 2 1 1 1 2 3 5 5 7 5 5 4 6 7 5 7 4 6 5 3 2 1 1 1 1 2 1 2 3 4 2 1 2 3 1 2 3 3 2 2 2 3 4 4 5 6 6 6 6 8 8 7 8 8 8 8 8 9 9 10 11 11 11 12 11 11 10 9 10 12 10 9 10 11 10 11 11 11 10 11 11
2 5 3 0 2 2 5 2 3 3 6 7 8 8 9 6 7 7 8 7 8 5 1 2 1 1 1 2 2 3 2 1 2 4 3 2 3 2 2 3 2 3 2 2 2 2 2 3 3 3 5 6 6 6 6 7 7 7 8 9 9 8 7 8 9 9 9 10 10 10 11 10 9 10 8 8 8 9 12 12 11 9 9 10 12 12 12
2 3 2 0 1 1 2 2 1 1 2 4 4 3 5 5 9 9 9 7 6 3 4 2 1 2 2 3 2 1 2 1 2 3 3 3 3 3 3 3 3 3 3 2 2 2 2 3 3 4 4 5 6 7 7 7 7 7 7 7 8 9 9 8 8 8 8 8 9 9 9 8 8 8 7 7 8 12 12 8 8 9 9 7 9 12 12
Wind_Direction
133 130 121 130 131 129 131 138 138 132 131 135 127 153 119 133 88 101 159 169 177 169 192 181 205 217 218 226 197 202 174 212 172 169 168 188 192 142 159 185 170 204 181 175 145 175 223 194 219 234 209 205 205 159 183 172 176 174 154 94 244 87 131 112 118 121 70 71 91 32 343 172 184 224 214 200 199 193 199 204 307 222 198 220 241 244 266
128 130 125 113 128 125 135 136 135 140 165 145 142 144 134 133 121 120 171 180 191 191 188 194 207 212 211 214 217 187 216 188 184 196 171 181 172 194 196 194 226 252 192 181 174 175 208 202 212 242 241 220 186 183 184 177 178 174 176 177 174 169 183 134 135 101 132 279 94 211 217 260 209 200 201 200 198 196 203 202 93 260 221 227 210 239 255
131 130 133 136 133 130 132 144 145 157 158 144 170 141 141 134 100 115 163 191 202 210 206 212 208 211 220 225 224 206 210 224 213 191 192 187 191 176 214 194 163 218 213 221 195 193 214 320 212 213 327 253 331 184 191 187 185 193 176 144 149 204 156 162 161 168 175 182 189 197 196 203 202 208 192 199 198 191 184 206 169 231 220 223 231 247 257
125 121 123 133 131 130 134 136 138 153 150 132 189 140 135 164 151 177 188 207 209 237 255 258 227 198 207 227 228 215 227 212 216 218 219 192 201 200 180 179 179 178 177 233 246 215 204 200 291 205 255 305 297 228 187 188 191 188 150 160 167 191 175 195 186 185 194 173 44 53 66 79 170 184 193 196 207 203 211 219 219 223 227 233 235 245 263
134 137 144 141 139 140 144 134 135 143 153 168 156 109 215 159 205 160 189 173 238 226 227 236 224 217 191 208 179 205 215 205 199 193 218 203 209 208 213 157 178 208 197 207 231 232 224 169 274 223 220 332 286 273 198 190 198 167 160 162 167 127 185 199 197 205 202 155 168 143 153 168 171 169 186 186 191 199 212 213 223 218 230 248 236 231 236
154 157 147 145 142 151 146 151 150 147 159 171 186 171 199 177 209 202 182 179 191 202 233 224 220 226 208 223 188 211 211 207 208 173 216 201 196 204 199 213 199 185 189 173 215 195 227 181 213 183 257 7 277 247 205 198 183 163 185 169 183 180 199 198 198 197 176 156 157 149 161 172 178 182 180 183 184 186 198 211 222 205 202 220 231 221 233
220 159 156 150 149 150 157 155 154 155 158 164 186 179 204 248 3 242 169 217 201 196 201 200 217 223 218 232 217 225 218 216 208 190 191 208 206 202 210 202 209 212 188 189 211 187 209 219 205 188 184 186 193 212 185 214 172 183 168 189 176 172 219 185 195 199 149 174 164 164 168 172 172 186 191 190 183 194 203 215 217 205 213 229 234 210 227
193 149 150 153 147 161 169 165 160 163 154 170 189 220 189 197 201 203 209 249 239 214 216 212 212 222 215 224 218 225 221 226 220 216 185 184 216 196 223 217 206 205 203 195 208 198 207 217 207 203 174 188 189 207 200 136 255 189 173 175 226 182 203 184 184 202 201 194 181 172 176 168 185 192 193 193 194 200 207 216 219 210 234 238 235 253 271
170 233 160 135 140 163 170 167 177 180 162 173 198 212 217 41 316 358 279 225 236 249 222 210 211 218 216 220 221 225 226 230 223 221 201 197 190 183 208 220 216 205 204 205 215 207 209 223 229 185 177 191 192 180 206 190 173 178 175 187 191 200 203 177 177 197 212 198 194 186 178 182 187 194 195 197 197 205 211 216 212 199 224 232 240 265 255
153 163 152 134 119 161 165 182 185 188 172 192 164 228 200 231 263 320 304 270 233 234 233 232 214 221 219 216 215 214 217 223 219 233 220 219 211 189 204 216 208 207 203 211 216 213 208 207 208 225 211 252 267 212 335 192 181 176 187 181 191 193 188 176 176 198 210 188 180 176 164 141 209 209 201 200 203 205 209 221 212 214 218 211 203 229 234
153 145 150 136 151 177 193 182 169 180 166 201 174 195 161 193 188 191 179 255 243 238 233 229 224 224 218 214 221 216 226 223 219 223 217 210 222 211 207 211 204 213 209 218 217 211 206 194 194 208 229 271 278 229 333 234 204 193 179 182 195 187 194 186 173 204 160 138 148 141 155 208 215 211 204 196 200 204 207 211 213 217 210 221 219 238 252
108 136 159 184 183 162 178 172 215 177 177 199 163 204 213 84 107 165 212 226 238 223 229 232 223 222 216 216 217 216 218 220 220 216 226 216 213 209 210 211 206 224 223 227 192 136 93 90 78 34 218 234 257 254 262 256 210 213 214 198 179 190 189 199 177 194 158 147 128 163 210 224 228 167 161 196 205 201 209 222 215 216 217 228 235 241 239
307 257 197 185 185 179 199 170 228 204 187 171 179 214 193 168 201 198 223 244 251 222 223 234 235 237 233 230 226 229 228 226 225 223 226 227 225 209 204 201 204 227 228 160 150 155 159 154 140 177 214 227 248 239 236 248 233 215 212 218 207 191 188 173 187 132 111 152 172 197 223 221 96 143 169 176 185 201 208 230 222 216 212 216 226 232 233
242 281 284 244 210 205 197 197 204 246 246 170 174 199 191 185 203 211 217 241 254 234 237 253 238 237 241 238 231 233 232 234 232 232 233 227 235 224 207 209 213 222 154 132 155 146 106 145 166 139 184 160 208 228 215 223 232 217 212 226 299 215 191 189 185 165 173 179 180 212 244 353 255 234 194 168 187 187 190 215 230 218 216 215 225 227 226
270 248 249 262 251 245 236 225 213 205 214 198 173 158 191 194 210 225 180 236 258 257 225 234 226 229 227 230 230 230 227 226 228 230 231 234 234 233 219 207 219 216 153 177 166 175 182 128 175 178 181 184 205 205 127 210 40 16 224 338 359 303 213 197 174 207 175 175 193 215 241 246 228 215 179 193 180 180 196 212 260 201 214 216 221 226 220
270 262 253 245 249 246 242 241 239 237 229 219 194 190 201 198 197 207 222 239 260 264 223 225 233 230 233 235 231 235 233 225 224 228 229 226 233 235 230 218 217 189 198 205 188 189 187 189 185 184 202 197 190 144 209 128 174 174 68 43 250 319 277 255 207 179 172 175 190 201 212 228 228 179 186 181 163 120 101 185 259 211 195 202 213 218 213
286 274 263 257 255 251 248 244 242 239 238 232 229 205 225 205 199 206 223 228 233 247 254 265 229 230 245 247 235 232 232 235 222 224 227 227 224 224 228 223 204 195 198 203 205 206 194 209 192 182 207 181 189 198 114 180 165 150 135 99 173 191 202 167 216 191 197 180 195 212 201 243 220 164 163 152 143 127 127 181 251 222 182 191 195 208 208
288 287 277 268 260 259 256 252 248 247 246 238 238 230 234 213 204 195 223 231 247 259 223 217 231 218 218 219 223 219 215 221 225 225 231 226 221 213 215 201 207 205 189 206 195 211 205 192 195 183 205 151 160 143 207 147 175 169 167 178 163 188 185 208 202 186 196 193 215 278 270 258 136 155 153 146 137 145 162 216 240 142 179 193 189 198 205
295 290 283 277 272 265 261 259 255 255 252 251 250 240 238 227 213 207 226 239 235 256 142 193 219 233 234 234 244 239 235 224 217 221 222 225 219 201 195 209 190 197 188 204 194 210 202 204 197 193 184 169 193 206 129 183 194 167 173 163 182 187 174 182 185 200 191 195 200 221 250 238 138 152 147 146 135 172 211 214 74 135 186 202 180 192 203
308 298 291 283 277 270 267 263 261 259 256 256 249 246 242 196 198 193 214 244 243 258 211 204 209 227 230 228 225 217 219 223 216 222 220 229 194 182 182 208 205 197 192 189 206 198 209 202 187 165 199 167 197 147 211 212 128 178 169 182 178 177 177 186 194 176 193 200 201 243 262 218 159 148 153 181 182 220 92 86 4 59 164 161 177 195 192
320 310 298 293 286 278 272 267 263 263 263 260 259 256 266 222 215 213 211 232 259 268 258 202 228 244 237 230 233 227 215 217 208 212 216 222 199 184 196 201 175 185 195 191 196 191 196 200 184 195 164 170 174 178 197 179 204 251 182 182 197 168 178 170 201 186 167 185 192 206 214 3 136 152 184 193 115 353 115 124 127 265 174 162 160 195 169
315 309 309 307 296 286 279 271 266 263 264 264 264 241 265 223 181 194 212 218 237 240 266 31 269 250 240 238 234 233 226 222 220 214 213 216 207 209 197 183 190 186 178 178 193 196 204 194 134 186 181 153 159 206 173 182 200 158 166 143 212 174 199 180 186 185 194 193 208 205 44 166 175 152 76 148 222 206 274 155 143 163 229 212 151 175 161
315 314 309 305 302 299 290 278 270 266 266 269 267 234 255 259 241 200 205 243 241 263 264 256 252 256 259 255 231 236 240 227 219 218 218 216 215 211 206 201 196 193 201 196 198 192 174 181 213 137 153 178 168 179 198 195 187 159 179 206 205 190 203 158 307 207 229 272 321 116 68 166 181 189 150 174 199 206 278 243 158 211 165 167 173 163 177
307 303 302 305 305 301 296 287 277 271 271 269 264 254 251 240 249 296 263 236 253 275 267 226 223 242 225 225 203 200 205 224 212 216 215 214 214 207 211 207 170 178 230 214 210 203 185 181 175 184 198 169 163 184 166 195 216 170 180 196 232 202 197 195 211 182 183 236 230 225 196 197 193 188 229 203 196 198 199 244 213 171 164 181 126 173 177
308 309 311 309 306 308 305 293 280 274 273 276 277 267 267 259 235 208 261 274 271 245 259 245 215 230 239 259 85 212 208 203 237 212 215 212 210 207 204 182 179 196 194 192 120 180 187 193 177 196 200 188 168 195 187 184 205 166 181 191 170 221 191 200 209 194 193 224 219 208 155 212 207 199 192 197 208 185 204 238 21 360 225 180 142 128 142
307 308 309 306 307 308 307 299 286 279 278 280 277 265 246 252 233 210 247 255 250 259 262 257 243 144 212 205 212 201 122 231 225 221 211 204 201 213 194 161 93 295 196 136 165 200 186 198 198 199 199 200 176 192 196 197 87 169 192 196 194 173 160 208 196 207 217 238 125 177 172 199 217 214 204 199 191 181 196 212 192 207 171 147 115 54 150
306 308 309 310 309 311 308 301 288 281 285 285 281 244 242 247 214 213 234 243 289 254 218 249 265 199 180 211 178 177 180 223 226 226 208 229 211 205 204 188 181 157 145 159 57 172 212 220 200 208 196 213 157 196 81 159 165 168 203 174 118 123 189 198 190 211 225 216 206 172 178 208 206 203 191 188 211 184 202 199 199 202 190 173 154 141 64
305 307 309 310 308 309 310 303 291 287 288 285 282 269 246 250 231 207 223 224 211 273 312 291 218 197 58 282 196 166 161 157 223 223 201 204 234 203 198 194 180 174 170 163 184 190 198 195 210 165 97 98 147 202 75 15 41 188 208 199 180 192 190 188 192 198 214 216 211 182 204 216 145 173 184 200 200 199 204 205 205 207 207 183 161 142 147
303 306 308 308 309 309 309 301 290 288 290 293 289 279 270 241 230 201 210 221 233 258 260 263 292 142 173 181 80 345 49 132 173 228 205 178 202 234 198 187 189 180 172 174 177 190 200 218 127 175 176 215 146 171 131 189 188 212 209 199 197 207 195 193 199 208 228 225 157 183 203 206 167 176 184 198 199 200 212 215 208 201 188 186 185 175 169
304 306 306 306 306 307 305 301 293 292 293 295 298 288 284 279 189 197 198 233 246 220 258 261 209 163 51 46 350 351 346 113 160 276 228 182 182 258 215 187 187 174 170 189 176 196 181 152 233 293 314 334 132 121 187 186 210 224 221 204 211 216 206 211 213 210 223 172 183 190 195 198 145 173 184 194 199 198 208 214 206 198 200 189 184 198 200
307 306 305 303 303 303 300 292 290 289 291 281 291 278 269 265 139 167 224 264 242 245 247 264 264 60 112 92 161 20 8 111 142 153 251 198 186 193 302 298 162 164 172 171 196 213 154 196 137 219 10 9 98 155 159 180 215 234 212 198 204 206 205 214 215 222 110 117 158 170 185 178 162 173 191 199 205 199 206 216 207 198 187 183 200 186 166
306 306 303 302 302 302 299 294 288 286 276 257 240 232 217 257 287 261 280 294 286 231 239 245 183 176 137 180 174 245 56 20 87 103 91 336 133 3 108 280 229 348 169 172 157 120 245 168 159 160 141 181 127 156 179 190 215 232 205 203 202 203 208 215 210 189 145 145 121 120 163 187 189 178 195 201 200 195 200 205 196 186 175 172 131 69 77
305 303 302 302 303 300 296 292 289 289 271 258 247 252 253 262 269 283 297 300 249 237 251 272 217 155 183 157 107 202 180 125 118 138 113 321 141 130 143 89 216 9 344 132 186 178 127 127 128 158 212 99 101 192 184 215 225 238 207 188 206 200 208 214 204 155 169 170 158 170 191 192 203 213 203 197 197 196 200 181 136 129 133 141 154 152 132
305 304 304 302 300 298 294 293 293 289 280 265 255 231 222 232 261 282 298 270 259 265 252 260 194 142 123 110 181 131 135 172 162 158 129 103 287 184 169 125 256 177 330 161 163 104 44 186 190 165 87 71 105 81 223 231 238 230 176 201 196 209 202 203 200 193 189 194 203 199 221 195 177 140 74 178 190 168 130 109 123 137 167 171 186 186 166
306 306 305 301 298 296 296 293 278 229 256 255 247 202 180 266 288 296 303 231 285 228 227 243 249 116 134 148 218 144 160 135 161 173 161 104 308 169 142 148 126 196 196 64 45 143 148 196 128 162 196 102 133 206 219 228 225 205 351 99 29 103 75 191 232 214 191 162 115 126 222 142 147 176 191 182 177 165 161 170 173 163 168 197 193 185 168
311 309 303 301 297 295 288 243 215 251 236 247 266 295 295 297 296 292 162 189 226 292 279 290 268 179 146 153 190 134 186 38 40 58 43 107 92 354 114 122 162 215 41 144 167 151 186 162 149 215 148 174 203 193 226 253 259 210 233 181 41 170 283 245 304 187 174 164 181 137 178 182 178 188 181 177 168 174 176 170 179 186 192 189 191 179 179
314 311 308 297 286 209 239 226 156 197 269 301 292 294 292 295 233 124 219 233 224 217 291 304 277 21 356 75 83 173 189 168 168 74 116 175 160 124 128 154 175 116 113 144 173 182 209 40 176 185 181 200 197 75 57 46 349 334 335 338 322 334 330 339 299 129 97 63 60 23 236 202 194 169 163 174 180 174 163 183 186 181 191 198 191 185 192
318 318 314 294 269 256 251 216 196 326 318 299 298 286 227 78 288 274 314 298 273 276 304 306 38 345 309 216 131 3 202 140 13 144 166 184 125 194 305 145 169 130 193 176 195 123 102 137 200 205 202 65 56 70 51 37 9 349 333 326 324 321 323 304 275 149 139 137 227 189 99 359 222 202 171 181 169 176 194 195 194 199 202 194 185 174 156
323 304 338 33 304 259 264 315 358 327 310 256 233 267 251 359 268 320 326 305 326 3 329 18 7 337 328 116 83 354 304 152 153 199 161 194 182 186 205 176 256 157 181 188 217 149 172 182 187 195 220 151 170 70 39 31 28 3 344 329 319 320 319 321 345 256 206 211 250 212 192 190 190 194 194 184 187 191 179 175 179 182 170 149 140 140 145
352 358 347 323 272 293 310 302 327 318 258 232 184 286 272 329 350 319 334 326 17 39 343 10 8 325 349 341 30 134 346 209 169 185 171 118 330 194 179 79 126 180 192 195 176 145 193 185 196 191 220 167 123 50 20 21 7 1 347 334 330 322 331 329 336 334 314 284 292 326 21 355 330 206 187 174 167 164 161 152 138 122 127 133 134 145 152
336 321 287 266 296 313 302 319 312 230 295 255 155 26 338 26 62 234 317 44 45 344 19 284 308 314 360 337 332 84 55 50 10 3 360 117 13 7 152 176 116 147 244 192 127 168 150 178 175 205 190 43 23 9 0 6 2 356 348 336 331 332 338 345 3 353 1 16 11 6 12 16 14 78 126 129 149 151 136 127 120 116 113 119 126 110 94
287 280 288 300 303 289 301 266 21 321 97 7 31 360 338 306 338 53 34 14 1 330 332 352 328 343 331 356 322 333 358 26 7 17 96 155 323 138 136 33 4 199 197 222 115 159 183 193 186 197 69 44 28 0 5 353 349 339 344 343 332 345 0 14 22 24 22 47 49 45 31 26 37 31 40 105 108 108 110 109 97 85 91 89 93 105 106
298 322 112 301 283 272 286 315 15 35 33 348 354 40 357 26 28 351 344 66 13 316 336 328 299 310 264 270 258 188 348 353 7 34 84 114 55 37 109 98 154 206 191 77 136 158 189 179 193 117 45 40 21 1 350 345 329 324 336 343 334 350 25 43 42 33 31 40 52 55 50 55 52 49 51 67 85 72 56 70 83 93 91 96 94 99 110
190 216 211 360 300 292 321 10 337 39 32 5 16 4 332 9 24 2 344 8 348 324 28 356 333 346 333 33 3 342 336 121 55 86 61 19 72 94 91 152 184 341 26 39 167 187 148 39 5 38 26 23 15 4 348 339 331 325 336 353 349 15 43 59 59 57 50 44 46 51 63 69 72 62 59 62 70 88 88 71 73 85 90 91 89 85 90
256 357 15 30 28 317 17 12 355 81 48 339 4 13 355 356 349 349 323 345 341 288 318 307 306 318 289 312 305 341 4 349 314 85 133 65 88 33 121 142 81 31 145 163 117 91 48 26 50 32 14 3 360 351 346 333 332 323 323 351 13 17 34 46 50 59 53 51 51 64 63 69 74 70 64 62 61 68 78 86 95 96 95 94 93 88 78
51 39 3 53 17 353 58 84 353 47 50 9 358 337 305 305 310 294 4 10 301 309 313 315 315 287 278 339 17 8 11 348 25 53 32 328 112 163 253 19 35 101 33 32 145 170 150 67 21 6 5 349 348 345 338 335 336 337 1 11 4 14 31 47 51 56 55 57 56 64 68 60 67 71 65 56 57 63 64 68 72 86 98 89 77 79 77
109 35 46 67 73 340 29 48 15 6 329 321 325 325 273 285 290 280 283 313 289 305 297 279 255 257 308 329 344 90 95 336 75 342 359 66 124 107 19 92 73 355 125 151 128 96 91 52 19 1 348 345 341 339 340 344 350 6 14 16 9 29 38 35 46 56 59 67 77 72 67 68 72 80 85 71 57 56 60 68 72 79 79 87 91 89 84
59 304 35 71 41 350 40 31 32 206 176 284 308 303 294 289 286 300 351 338 299 298 296 317 326 201 230 205 210 310 4 311 69 38 4 330 41 53 52 53 77 89 11 19 53 38 56 30 344 336 341 346 336 334 342 353 1 17 20 18 21 26 26 27 38 53 61 65 71 78 79 81 83 81 76 79 73 59 60 65 73 81 87 88 86 87 93
80 47 60 127 103 35 30 29 322 6 21 314 252 275 340 342 313 315 333 320 311 294 293 276 304 323 343 17 20 12 27 342 46 7 33 21 69 52 87 118 104 88 39 46 64 59 36 8 336 346 341 347 343 342 340 348 355 5 18 21 19 17 24 31 35 45 51 60 64 70 68 74 71 74 80 72 72 59 45 42 45 42 43 66 84 85 74
41 43 30 19 26 129 347 239 244 354 7 6 7 350 347 324 321 330 6 330 329 317 273 216 226 268 317 344 18 37 57 13 41 348 59 47 23 310 68 85 48 79 87 48 50 43 14 344 336 347 4 357 357 353 345 349 359 3 13 23 22 25 27 31 33 38 43 47 51 60 70 69 62 60 66 78 86 89 70 56 48 52 48 35 46 59 67
36 90 107 309 13 336 343 34 17 336 356 0 355 346 348 329 332 319 354 327 320 303 250 19 340 351 344 8 14 39 22 346 51 40 47 31 334 354 23 76 64 44 65 54 48 40 357 355 357 335 347 350 358 353 349 350 1 5 10 22 26 33 37 40 44 47 44 46 54 62 58 58 65 80 86 93 108 98 75 55 48 55 61 55 47 54 64
40 51 34 56 38 21 341 303 287 300 312 310 316 318 347 309 330 314 329 319 295 336 8 325 343 8 42 37 2 307 304 48 44 27 45 49 7 6 31 22 48 47 26 74 51 33 25 12 10 352 341 337 338 344 344 356 17 20 22 30 30 31 36 38 44 47 53 53 50 57 64 64 69 79 84 81 65 65 64 57 35 37 53 68 71 66 68